CZ-6A DEB, 55862

Orbit data source: Space-Track

CZ-6A DEB, 55862 is space debris in SSO originally from a launch on Fri, 11 Nov 2022 UTC launched from the Taiyaun Space Center, China (TSC). Debris objects in space refer to the collection of defunct objects orbiting the Earth. Examples of debris include non-operational satellites, rocket bodies, and fragments generated from explosions, collisions, or faulty payload assembly.

Loading next visibility...
Identifier
55862, 2022-151ZJ
Orbit
SSO
Country
Flag of CNCN / PRC
Related business
Manufacturer
SAST
Mission
Spacecraft
Bus & Motor
Unknown
Mass
Unknown
Launch date (UTC)
2022-11-11 (4 years ago)
Launch vehicle
Unknown
Launch site
Taiyaun Space Center, China (TSC)
Object type
Payload
Rocket body
Debris
Shape & HBR
Unknown shape, 0.1 m
Radar Cross Section
Small (<0.1 m²)

Expand to show TLE details & history
Last TLE update: 3 days ago

TLE from 3 days ago
0 CZ-6A DEB
1 55862U 22151ZJ  26170.49701814  .00001744  00000-0  70067-3 0  9996
2 55862  98.7462 194.5928 0003228  62.5034 297.6476 14.29464358180700
Epoch: 2026-06-19T11:55Z
TLE epoch observation values (Epoch: 2026-06-19T11:55:42.367Z)
Latitude
0.00005°
Longitude
107.94111°
Altitude
795.374 km
Speed
7.456 km/s
True Right ascension
12h 58m 22s
True Declination
0° 00' 00"
Sunlit
Object was in daylight at epoch
Visualization orbit readout
Latitude
Unknown
Longitude
Unknown
Altitude
Unknown
Speed
Unknown
Apparent Right ascension
Unknown
Apparent Declination
Unknown
Sunlit
N/A
Visualization observer readout
Local Sidereal Time
21:40:07
Azimuth
Unknown
Elevation
Unknown
Doppler factor
Unknown
Orbital elements
Apogee altitude
792.984 km
Perigee altitude
788.355 km
Semi-major axis
7,168.807 km
Eccentricity
0.00032
Inclination
98.7462°
RAAN
194.5928°
Arg. of periapsis
62.5034°
True anomaly
297.61483°
Mean anomaly
297.6476°
Eccentric anomaly
297.63121°
Mean motion
3.5758 °/min
Orbital period
100.68 mins
BSTAR
0.00070067
Loading maneuver chart data...
Computing Atmospheric mass density...
Loading historical data...
Loading historical data...
Loading historical data...
Loading historical data...
Loading historical data...
Loading historical data...
Loading historical data...

Documentation

Showing up to 5 results
|